星链-3597 (STARLINK-3597 )

导读 | 豆包AI

STARLINK-3597是美国SpaceX公司星链(Starlink)星座中的一颗低轨通信卫星,于2022年3月3日发射升空。星链计划旨在构建覆盖全球的卫星互联网,该卫星采用平板设计,搭载高通量通信载荷与霍尔推进器,服役后将为偏远地区、海洋等区域提供高速低延迟的宽带网络服务,同时也可支持军事通信等应用,不过星链大规模部署也带来了太空碎片等争议。

基本信息
目录编号:
51898
目录名称:
STARLINK-3597
国际标识:
2022-022AY
轨道中心:
EARTH
卫星名称:
星链-3597
卫星全名:
星链-3597 (STARLINK-3597 )
卫星状态:
在轨 (已飞行1472 天)
发射日期:
2022-03-03 UTC
国别 :
美国 (US)
星等 :
--
轨道信息
数据来源 国际轨道数据
星历时间: 2026-03-14T08:45:07+0800
21小时前
查看轨道信息
半长轴: 6917.876km
偏心率: 0.0001303
轨道倾角: 53.219°
近地点辐角 85.055°
升交点赤经 339.631°
平近点角 275.059°
近地点: 538.837km
远地点: 540.641km
周期: 95.437分钟
每日圈数: 15.088416
详细信息
固有亮度:
5
最大亮度:
2.5
卫星平台:
Starlink v1.5
覆盖范围:
全球
运营商:
太空探索技术公司
运营商所在国:
美国
制造商(研发单位):
太空探索技术公司
制造商所在国:
美国
使用方式:
暂无
卫星简介
星链(Starlink)计划是由太空探索技术公司(SpaceX)提出的一个巨型低轨卫星互联网星座项目,计划在2019年至2024年间在太空搭建由约1.2万颗卫星组成的“星链”网络,其中1584颗将部署在地球上空550千米处的近地轨道,并从2020年开始工作。该卫星仍在工作。
2D轨道图
3D轨道图
轨道高度分析图
轨道倾角分析图
轨道综合分析图
查看轨道综合分析图